owner,sensor,date,latitude,longitude,vertical_datum,mass_concentration_of_oxygen_in_sea_water,qcFlag 
DISL,ioos:station:DISL:CATA:1,2009-09-01T00:00:00Z,30.3085,-88.1395,2.327,9.51,1111122 
DISL,ioos:station:DISL:CATA:1,2009-09-01T00:30:00Z,30.3085,-88.1395,2.323,9.3,1111122 
DISL,ioos:station:DISL:CATA:1,2009-09-01T01:00:00Z,30.3085,-88.1395,2.328,9.13,1111122 
DISL,ioos:station:DISL:CATA:1,2009-09-01T01:30:00Z,30.3085,-88.1395,2.34,8.33,1111122 
DISL,ioos:station:DISL:CATA:1,2009-09-01T02:00:00Z,30.3085,-88.1395,2.349,7.32,1111122 
DISL,ioos:station:DISL:CATA:1,2009-09-01T02:30:00Z,30.3085,-88.1395,2.366,6.92,1111122 
DISL,ioos:station:DISL:CATA:1,2009-09-01T03:00:00Z,30.3085,-88.1395,2.381,6.89,1111122 
DISL,ioos:station:DISL:CATA:1,2009-09-01T03:30:00Z,30.3085,-88.1395,2.391,7.21,1111122 
DISL,ioos:station:DISL:CATA:1,2009-09-01T04:00:00Z,30.3085,-88.1395,2.41,7.89,1111122 
DISL,ioos:station:DISL:CATA:1,2009-09-01T04:30:00Z,30.3085,-88.1395,2.424,7.81,1111122 
DISL,ioos:station:DISL:CATA:1,2009-09-01T05:00:00Z,30.3085,-88.1395,2.443,7.81,1111122 
DISL,ioos:station:DISL:CATA:1,2009-09-01T05:30:00Z,30.3085,-88.1395,2.465,7.65,1111122 
DISL,ioos:station:DISL:CATA:1,2009-09-01T06:00:00Z,30.3085,-88.1395,2.485,7.62,1111122 
DISL,ioos:station:DISL:CATA:1,2009-09-01T06:30:00Z,30.3085,-88.1395,2.499,7.46,1111122 
DISL,ioos:station:DISL:CATA:1,2009-09-01T07:00:00Z,30.3085,-88.1395,2.51,7.27,1111122 
DISL,ioos:station:DISL:CATA:1,2009-09-01T07:30:00Z,30.3085,-88.1395,2.529,7.2,1111122 
DISL,ioos:station:DISL:CATA:1,2009-09-01T08:00:00Z,30.3085,-88.1395,2.545,7.06,1111122 
DISL,ioos:station:DISL:CATA:1,2009-09-01T08:30:00Z,30.3085,-88.1395,2.56,6.5,1111122 
DISL,ioos:station:DISL:CATA:1,2009-09-01T09:00:00Z,30.3085,-88.1395,2.584,5.69,1111122 
DISL,ioos:station:DISL:CATA:1,2009-09-01T09:30:00Z,30.3085,-88.1395,2.605,6.42,1111122 
DISL,ioos:station:DISL:CATA:1,2009-09-01T10:00:00Z,30.3085,-88.1395,2.627,5.46,1111122 
DISL,ioos:station:DISL:CATA:1,2009-09-01T10:30:00Z,30.3085,-88.1395,2.657,5.59,1111122 
DISL,ioos:station:DISL:CATA:1,2009-09-01T11:00:00Z,30.3085,-88.1395,2.678,5.88,1111122 
DISL,ioos:station:DISL:CATA:1,2009-09-01T11:30:00Z,30.3085,-88.1395,2.698,4.79,1111122 
DISL,ioos:station:DISL:CATA:1,2009-09-01T12:00:00Z,30.3085,-88.1395,2.721,3.89,1111122 
DISL,ioos:station:DISL:CATA:1,2009-09-01T12:30:00Z,30.3085,-88.1395,2.739,3.64,1111122 
DISL,ioos:station:DISL:CATA:1,2009-09-01T13:00:00Z,30.3085,-88.1395,2.755,3.73,1111122 
DISL,ioos:station:DISL:CATA:1,2009-09-01T13:30:00Z,30.3085,-88.1395,2.762,4.07,1111122 
DISL,ioos:station:DISL:CATA:1,2009-09-01T14:00:00Z,30.3085,-88.1395,2.766,3.69,1111122 
DISL,ioos:station:DISL:CATA:1,2009-09-01T14:30:00Z,30.3085,-88.1395,2.773,3.81,1111122 
DISL,ioos:station:DISL:CATA:1,2009-09-01T15:00:00Z,30.3085,-88.1395,2.773,3.26,1111122 
DISL,ioos:station:DISL:CATA:1,2009-09-01T15:30:00Z,30.3085,-88.1395,2.775,3.4,1111122 
DISL,ioos:station:DISL:CATA:1,2009-09-01T16:00:00Z,30.3085,-88.1395,2.776,2.71,1111122 
DISL,ioos:station:DISL:CATA:1,2009-09-01T16:30:00Z,30.3085,-88.1395,2.762,2.67,1111122 
DISL,ioos:station:DISL:CATA:1,2009-09-01T17:00:00Z,30.3085,-88.1395,2.744,3.06,1111122 
DISL,ioos:station:DISL:CATA:1,2009-09-01T17:30:00Z,30.3085,-88.1395,2.717,3.12,1111122 
DISL,ioos:station:DISL:CATA:1,2009-09-01T18:00:00Z,30.3085,-88.1395,2.691,3.78,1111122 
DISL,ioos:station:DISL:CATA:1,2009-09-01T18:30:00Z,30.3085,-88.1395,2.655,3.25,1111122 
DISL,ioos:station:DISL:CATA:1,2009-09-01T19:00:00Z,30.3085,-88.1395,2.618,4.73,1111122 
DISL,ioos:station:DISL:CATA:1,2009-09-01T19:30:00Z,30.3085,-88.1395,2.58,7.8,1111122 
DISL,ioos:station:DISL:CATA:1,2009-09-01T20:00:00Z,30.3085,-88.1395,2.536,8.48,1111122 
DISL,ioos:station:DISL:CATA:1,2009-09-01T20:30:00Z,30.3085,-88.1395,2.492,8.54,1111122 
DISL,ioos:station:DISL:CATA:1,2009-09-01T21:00:00Z,30.3085,-88.1395,2.468,8.83,1111122 
DISL,ioos:station:DISL:CATA:1,2009-09-01T21:30:00Z,30.3085,-88.1395,2.447,8.9,1111122 
DISL,ioos:station:DISL:CATA:1,2009-09-01T22:00:00Z,30.3085,-88.1395,2.426,9.0,1111122 
DISL,ioos:station:DISL:CATA:1,2009-09-01T22:30:00Z,30.3085,-88.1395,2.404,8.99,1111122 
DISL,ioos:station:DISL:CATA:1,2009-09-01T23:00:00Z,30.3085,-88.1395,2.394,9.46,1111122 
DISL,ioos:station:DISL:CATA:1,2009-09-01T23:30:00Z,30.3085,-88.1395,2.387,9.24,1111122 
DISL,ioos:station:DISL:CATA:1,2009-09-02T00:00:00Z,30.3085,-88.1395,2.388,9.19,1111122 
DISL,ioos:station:DISL:CATA:1,2009-09-02T00:30:00Z,30.3085,-88.1395,2.391,8.99,1111122 
DISL,ioos:station:DISL:CATA:1,2009-09-02T01:00:00Z,30.3085,-88.1395,2.395,9.11,1111122 
DISL,ioos:station:DISL:CATA:1,2009-09-02T01:30:00Z,30.3085,-88.1395,2.399,9.11,1111122 
DISL,ioos:station:DISL:CATA:1,2009-09-02T02:00:00Z,30.3085,-88.1395,2.407,8.89,1111122 
DISL,ioos:station:DISL:CATA:1,2009-09-02T02:30:00Z,30.3085,-88.1395,2.421,8.12,1111122 
DISL,ioos:station:DISL:CATA:1,2009-09-02T03:00:00Z,30.3085,-88.1395,2.437,8.01,1111122 
DISL,ioos:station:DISL:CATA:1,2009-09-02T03:30:00Z,30.3085,-88.1395,2.45,7.9,1111122 
DISL,ioos:station:DISL:CATA:1,2009-09-02T04:00:00Z,30.3085,-88.1395,2.456,7.19,1111122 
DISL,ioos:station:DISL:CATA:1,2009-09-02T04:30:00Z,30.3085,-88.1395,2.454,7.24,1111122 
DISL,ioos:station:DISL:CATA:1,2009-09-02T05:00:00Z,30.3085,-88.1395,2.452,7.75,1111122 
DISL,ioos:station:DISL:CATA:1,2009-09-02T05:30:00Z,30.3085,-88.1395,2.453,7.39,1111122 
DISL,ioos:station:DISL:CATA:1,2009-09-02T06:00:00Z,30.3085,-88.1395,2.459,6.98,1111122 
DISL,ioos:station:DISL:CATA:1,2009-09-02T06:30:00Z,30.3085,-88.1395,2.47,6.71,1111122 
DISL,ioos:station:DISL:CATA:1,2009-09-02T07:00:00Z,30.3085,-88.1395,2.492,6.97,1111122 
DISL,ioos:station:DISL:CATA:1,2009-09-02T07:30:00Z,30.3085,-88.1395,2.498,6.97,1111122 
DISL,ioos:station:DISL:CATA:1,2009-09-02T08:00:00Z,30.3085,-88.1395,2.506,6.64,1111122 
DISL,ioos:station:DISL:CATA:1,2009-09-02T08:30:00Z,30.3085,-88.1395,2.535,5.68,1111122 
DISL,ioos:station:DISL:CATA:1,2009-09-02T09:00:00Z,30.3085,-88.1395,2.568,5.41,1111122 
DISL,ioos:station:DISL:CATA:1,2009-09-02T09:30:00Z,30.3085,-88.1395,2.585,4.7,1111122 
DISL,ioos:station:DISL:CATA:1,2009-09-02T10:00:00Z,30.3085,-88.1395,2.598,3.42,1111122 
DISL,ioos:station:DISL:CATA:1,2009-09-02T10:30:00Z,30.3085,-88.1395,2.618,3.0,1111122 
DISL,ioos:station:DISL:CATA:1,2009-09-02T11:00:00Z,30.3085,-88.1395,2.646,3.67,1111122 
DISL,ioos:station:DISL:CATA:1,2009-09-02T11:30:00Z,30.3085,-88.1395,2.676,3.82,1111122 
DISL,ioos:station:DISL:CATA:1,2009-09-02T12:00:00Z,30.3085,-88.1395,2.704,4.27,1111122 
DISL,ioos:station:DISL:CATA:1,2009-09-02T12:30:00Z,30.3085,-88.1395,2.727,4.82,1111122 
DISL,ioos:station:DISL:CATA:1,2009-09-02T13:00:00Z,30.3085,-88.1395,2.752,5.62,1111122 
DISL,ioos:station:DISL:CATA:1,2009-09-02T13:30:00Z,30.3085,-88.1395,2.769,6.19,1111122 
DISL,ioos:station:DISL:CATA:1,2009-09-02T14:00:00Z,30.3085,-88.1395,2.779,6.1,1111122 
DISL,ioos:station:DISL:CATA:1,2009-09-02T14:30:00Z,30.3085,-88.1395,2.795,5.93,1111122 
DISL,ioos:station:DISL:CATA:1,2009-09-02T15:00:00Z,30.3085,-88.1395,2.802,5.36,1111122 
DISL,ioos:station:DISL:CATA:1,2009-09-02T15:30:00Z,30.3085,-88.1395,2.813,5.03,1111122 
DISL,ioos:station:DISL:CATA:1,2009-09-02T16:00:00Z,30.3085,-88.1395,2.814,5.07,1111122 
DISL,ioos:station:DISL:CATA:1,2009-09-02T16:30:00Z,30.3085,-88.1395,2.808,5.05,1111122 
DISL,ioos:station:DISL:CATA:1,2009-09-02T17:00:00Z,30.3085,-88.1395,2.792,5.81,1111122 
DISL,ioos:station:DISL:CATA:1,2009-09-02T17:30:00Z,30.3085,-88.1395,2.767,5.48,1111122 
DISL,ioos:station:DISL:CATA:1,2009-09-02T18:00:00Z,30.3085,-88.1395,2.733,5.39,1111122 
DISL,ioos:station:DISL:CATA:1,2009-09-02T18:30:00Z,30.3085,-88.1395,2.709,5.44,1111122 
DISL,ioos:station:DISL:CATA:1,2009-09-02T19:00:00Z,30.3085,-88.1395,2.692,6.59,1111122 
DISL,ioos:station:DISL:CATA:1,2009-09-02T19:30:00Z,30.3085,-88.1395,2.655,7.48,1111122 
DISL,ioos:station:DISL:CATA:1,2009-09-02T20:00:00Z,30.3085,-88.1395,2.616,8.68,1111122 
DISL,ioos:station:DISL:CATA:1,2009-09-02T20:30:00Z,30.3085,-88.1395,2.578,8.69,1111122 
DISL,ioos:station:DISL:CATA:1,2009-09-02T21:00:00Z,30.3085,-88.1395,2.552,9.34,1111122 
DISL,ioos:station:DISL:CATA:1,2009-09-02T21:30:00Z,30.3085,-88.1395,2.516,9.28,1111122 
DISL,ioos:station:DISL:CATA:1,2009-09-02T22:00:00Z,30.3085,-88.1395,2.495,9.29,1111122 
DISL,ioos:station:DISL:CATA:1,2009-09-02T22:30:00Z,30.3085,-88.1395,2.497,9.27,1111122 
DISL,ioos:station:DISL:CATA:1,2009-09-02T23:00:00Z,30.3085,-88.1395,2.487,8.95,1111122 
DISL,ioos:station:DISL:CATA:1,2009-09-02T23:30:00Z,30.3085,-88.1395,2.468,8.84,1111122 
DISL,ioos:station:DISL:CATA:1,2009-09-03T00:00:00Z,30.3085,-88.1395,2.465,8.57,1111122 
DISL,ioos:station:DISL:CATA:1,2009-09-03T00:30:00Z,30.3085,-88.1395,2.473,8.09,1111122 
DISL,ioos:station:DISL:CATA:1,2009-09-03T01:00:00Z,30.3085,-88.1395,2.463,7.68,1111122 
DISL,ioos:station:DISL:CATA:1,2009-09-03T01:30:00Z,30.3085,-88.1395,2.451,7.39,1111122 
DISL,ioos:station:DISL:CATA:1,2009-09-03T02:00:00Z,30.3085,-88.1395,2.45,7.15,1111122 
DISL,ioos:station:DISL:CATA:1,2009-09-03T02:30:00Z,30.3085,-88.1395,2.44,6.97,1111122 
DISL,ioos:station:DISL:CATA:1,2009-09-03T03:00:00Z,30.3085,-88.1395,2.436,6.9,1111122 
DISL,ioos:station:DISL:CATA:1,2009-09-03T03:30:00Z,30.3085,-88.1395,2.445,6.82,1111122 
DISL,ioos:station:DISL:CATA:1,2009-09-03T04:00:00Z,30.3085,-88.1395,2.457,6.71,1111122 
DISL,ioos:station:DISL:CATA:1,2009-09-03T04:30:00Z,30.3085,-88.1395,2.46,6.6,1111122 
DISL,ioos:station:DISL:CATA:1,2009-09-03T05:00:00Z,30.3085,-88.1395,2.467,6.46,1111122 
DISL,ioos:station:DISL:CATA:1,2009-09-03T05:30:00Z,30.3085,-88.1395,2.478,6.32,1111122 
DISL,ioos:station:DISL:CATA:1,2009-09-03T06:00:00Z,30.3085,-88.1395,2.489,6.12,1111122 
DISL,ioos:station:DISL:CATA:1,2009-09-03T06:30:00Z,30.3085,-88.1395,2.506,5.93,1111122 
DISL,ioos:station:DISL:CATA:1,2009-09-03T07:00:00Z,30.3085,-88.1395,2.53,5.65,1111122 
DISL,ioos:station:DISL:CATA:1,2009-09-03T07:30:00Z,30.3085,-88.1395,2.552,5.76,1111122 
DISL,ioos:station:DISL:CATA:1,2009-09-03T08:00:00Z,30.3085,-88.1395,2.567,5.72,1111122 
DISL,ioos:station:DISL:CATA:1,2009-09-03T08:30:00Z,30.3085,-88.1395,2.572,5.63,1111122 
DISL,ioos:station:DISL:CATA:1,2009-09-03T09:00:00Z,30.3085,-88.1395,2.594,5.66,1111122 
DISL,ioos:station:DISL:CATA:1,2009-09-03T09:30:00Z,30.3085,-88.1395,2.614,5.25,1111122 
DISL,ioos:station:DISL:CATA:1,2009-09-03T10:00:00Z,30.3085,-88.1395,2.628,5.57,1111122 
DISL,ioos:station:DISL:CATA:1,2009-09-03T10:30:00Z,30.3085,-88.1395,2.66,5.72,1111122 
DISL,ioos:station:DISL:CATA:1,2009-09-03T11:00:00Z,30.3085,-88.1395,2.689,5.59,1111122 
DISL,ioos:station:DISL:CATA:1,2009-09-03T11:30:00Z,30.3085,-88.1395,2.697,5.71,1111122 
DISL,ioos:station:DISL:CATA:1,2009-09-03T12:00:00Z,30.3085,-88.1395,2.706,5.78,1111122 
DISL,ioos:station:DISL:CATA:1,2009-09-03T12:30:00Z,30.3085,-88.1395,2.73,5.63,1111122 
DISL,ioos:station:DISL:CATA:1,2009-09-03T13:00:00Z,30.3085,-88.1395,2.76,5.62,1111122 
DISL,ioos:station:DISL:CATA:1,2009-09-03T13:30:00Z,30.3085,-88.1395,2.772,5.27,1111122 
DISL,ioos:station:DISL:CATA:1,2009-09-03T14:00:00Z,30.3085,-88.1395,2.776,5.82,1111122 
DISL,ioos:station:DISL:CATA:1,2009-09-03T14:30:00Z,30.3085,-88.1395,2.809,5.51,1111122 
DISL,ioos:station:DISL:CATA:1,2009-09-03T15:00:00Z,30.3085,-88.1395,2.835,5.44,1111122 
DISL,ioos:station:DISL:CATA:1,2009-09-03T15:30:00Z,30.3085,-88.1395,2.849,5.95,1111122 
DISL,ioos:station:DISL:CATA:1,2009-09-03T16:00:00Z,30.3085,-88.1395,2.856,5.79,1111122 
DISL,ioos:station:DISL:CATA:1,2009-09-03T16:30:00Z,30.3085,-88.1395,2.863,6.01,1111122 
DISL,ioos:station:DISL:CATA:1,2009-09-03T17:00:00Z,30.3085,-88.1395,2.862,6.29,1111122 
DISL,ioos:station:DISL:CATA:1,2009-09-03T17:30:00Z,30.3085,-88.1395,2.841,6.14,1111122 
DISL,ioos:station:DISL:CATA:1,2009-09-03T18:00:00Z,30.3085,-88.1395,2.815,5.65,1111122 
DISL,ioos:station:DISL:CATA:1,2009-09-03T18:30:00Z,30.3085,-88.1395,2.796,5.11,1111122 
DISL,ioos:station:DISL:CATA:1,2009-09-03T19:00:00Z,30.3085,-88.1395,2.774,5.65,1111122 
DISL,ioos:station:DISL:CATA:1,2009-09-03T19:30:00Z,30.3085,-88.1395,2.747,6.81,1111122 
DISL,ioos:station:DISL:CATA:1,2009-09-03T20:00:00Z,30.3085,-88.1395,2.716,7.21,1111122 
DISL,ioos:station:DISL:CATA:1,2009-09-03T20:30:00Z,30.3085,-88.1395,2.697,7.47,1111122 
DISL,ioos:station:DISL:CATA:1,2009-09-03T21:00:00Z,30.3085,-88.1395,2.675,8.32,1111122 
DISL,ioos:station:DISL:CATA:1,2009-09-03T21:30:00Z,30.3085,-88.1395,2.649,8.77,1111122 
DISL,ioos:station:DISL:CATA:1,2009-09-03T22:00:00Z,30.3085,-88.1395,2.627,8.9,1111122 
DISL,ioos:station:DISL:CATA:1,2009-09-03T22:30:00Z,30.3085,-88.1395,2.609,8.71,1111122 
DISL,ioos:station:DISL:CATA:1,2009-09-03T23:00:00Z,30.3085,-88.1395,2.59,8.61,1111122 
DISL,ioos:station:DISL:CATA:1,2009-09-03T23:30:00Z,30.3085,-88.1395,2.585,8.29,1111122 
DISL,ioos:station:DISL:CATA:1,2009-09-04T00:00:00Z,30.3085,-88.1395,2.566,7.98,1111122 
DISL,ioos:station:DISL:CATA:1,2009-09-04T00:30:00Z,30.3085,-88.1395,2.549,7.6,1111122 
DISL,ioos:station:DISL:CATA:1,2009-09-04T01:00:00Z,30.3085,-88.1395,2.549,7.2,1111122 
DISL,ioos:station:DISL:CATA:1,2009-09-04T01:30:00Z,30.3085,-88.1395,2.558,6.92,1111122 
DISL,ioos:station:DISL:CATA:1,2009-09-04T02:00:00Z,30.3085,-88.1395,2.562,6.77,1111122 
DISL,ioos:station:DISL:CATA:1,2009-09-04T02:30:00Z,30.3085,-88.1395,2.562,6.59,1111122 
DISL,ioos:station:DISL:CATA:1,2009-09-04T03:00:00Z,30.3085,-88.1395,2.569,6.44,1111122 
DISL,ioos:station:DISL:CATA:1,2009-09-04T03:30:00Z,30.3085,-88.1395,2.574,6.69,1111122 
DISL,ioos:station:DISL:CATA:1,2009-09-04T04:00:00Z,30.3085,-88.1395,2.574,6.52,1111122 
DISL,ioos:station:DISL:CATA:1,2009-09-04T04:30:00Z,30.3085,-88.1395,2.584,6.4,1111122 
DISL,ioos:station:DISL:CATA:1,2009-09-04T05:00:00Z,30.3085,-88.1395,2.598,6.11,1111122 
DISL,ioos:station:DISL:CATA:1,2009-09-04T05:30:00Z,30.3085,-88.1395,2.602,6.36,1111122 
DISL,ioos:station:DISL:CATA:1,2009-09-04T06:00:00Z,30.3085,-88.1395,2.603,6.12,1111122 
DISL,ioos:station:DISL:CATA:1,2009-09-04T06:30:00Z,30.3085,-88.1395,2.605,5.83,1111122 
DISL,ioos:station:DISL:CATA:1,2009-09-04T07:00:00Z,30.3085,-88.1395,2.607,5.75,1111122 
DISL,ioos:station:DISL:CATA:1,2009-09-04T07:30:00Z,30.3085,-88.1395,2.608,5.5,1111122 
DISL,ioos:station:DISL:CATA:1,2009-09-04T08:00:00Z,30.3085,-88.1395,2.613,5.94,1111122 
DISL,ioos:station:DISL:CATA:1,2009-09-04T08:30:00Z,30.3085,-88.1395,2.615,5.96,1111122 
DISL,ioos:station:DISL:CATA:1,2009-09-04T09:00:00Z,30.3085,-88.1395,2.613,6.22,1111122 
DISL,ioos:station:DISL:CATA:1,2009-09-04T09:30:00Z,30.3085,-88.1395,2.618,6.49,1111122 
DISL,ioos:station:DISL:CATA:1,2009-09-04T10:00:00Z,30.3085,-88.1395,2.628,6.41,1111122 
DISL,ioos:station:DISL:CATA:1,2009-09-04T10:30:00Z,30.3085,-88.1395,2.635,6.37,1111122 
DISL,ioos:station:DISL:CATA:1,2009-09-04T11:00:00Z,30.3085,-88.1395,2.639,6.35,1111122 
DISL,ioos:station:DISL:CATA:1,2009-09-04T11:30:00Z,30.3085,-88.1395,2.656,6.32,1111122 
DISL,ioos:station:DISL:CATA:1,2009-09-04T12:00:00Z,30.3085,-88.1395,2.672,6.3,1111122 
DISL,ioos:station:DISL:CATA:1,2009-09-04T12:30:00Z,30.3085,-88.1395,2.691,6.31,1111122 
DISL,ioos:station:DISL:CATA:1,2009-09-04T13:00:00Z,30.3085,-88.1395,2.714,6.32,1111122 
DISL,ioos:station:DISL:CATA:1,2009-09-04T13:30:00Z,30.3085,-88.1395,2.733,6.13,1111122 
DISL,ioos:station:DISL:CATA:1,2009-09-04T14:00:00Z,30.3085,-88.1395,2.753,5.86,1111122 
DISL,ioos:station:DISL:CATA:1,2009-09-04T14:30:00Z,30.3085,-88.1395,2.77,5.86,1111122 
DISL,ioos:station:DISL:CATA:1,2009-09-04T15:00:00Z,30.3085,-88.1395,2.786,6.24,1111122 
DISL,ioos:station:DISL:CATA:1,2009-09-04T15:30:00Z,30.3085,-88.1395,2.8,5.95,1111122 
DISL,ioos:station:DISL:CATA:1,2009-09-04T16:00:00Z,30.3085,-88.1395,2.815,6.27,1111122 
DISL,ioos:station:DISL:CATA:1,2009-09-04T16:30:00Z,30.3085,-88.1395,2.831,5.69,1111122 
DISL,ioos:station:DISL:CATA:1,2009-09-04T17:00:00Z,30.3085,-88.1395,2.841,5.17,1111122 
DISL,ioos:station:DISL:CATA:1,2009-09-04T17:30:00Z,30.3085,-88.1395,2.828,4.42,1111122 
DISL,ioos:station:DISL:CATA:1,2009-09-04T18:00:00Z,30.3085,-88.1395,2.808,4.21,1111122 
DISL,ioos:station:DISL:CATA:1,2009-09-04T18:30:00Z,30.3085,-88.1395,2.796,5.25,1111122 
DISL,ioos:station:DISL:CATA:1,2009-09-04T19:00:00Z,30.3085,-88.1395,2.799,6.86,1111122 
DISL,ioos:station:DISL:CATA:1,2009-09-04T19:30:00Z,30.3085,-88.1395,2.797,7.03,1111122 
DISL,ioos:station:DISL:CATA:1,2009-09-04T20:00:00Z,30.3085,-88.1395,2.779,7.19,1111122 
DISL,ioos:station:DISL:CATA:1,2009-09-04T20:30:00Z,30.3085,-88.1395,2.756,7.14,1111122 
DISL,ioos:station:DISL:CATA:1,2009-09-04T21:00:00Z,30.3085,-88.1395,2.736,7.27,1111122 
DISL,ioos:station:DISL:CATA:1,2009-09-04T21:30:00Z,30.3085,-88.1395,2.711,6.39,1111122 
DISL,ioos:station:DISL:CATA:1,2009-09-04T22:00:00Z,30.3085,-88.1395,2.686,6.2,1111122 
DISL,ioos:station:DISL:CATA:1,2009-09-04T22:30:00Z,30.3085,-88.1395,2.667,6.24,1111122 
DISL,ioos:station:DISL:CATA:1,2009-09-04T23:00:00Z,30.3085,-88.1395,2.654,6.28,1111122 
DISL,ioos:station:DISL:CATA:1,2009-09-04T23:30:00Z,30.3085,-88.1395,2.63,6.64,1111122 
DISL,ioos:station:DISL:CATA:1,2009-09-05T00:00:00Z,30.3085,-88.1395,2.618,6.56,1111122 
DISL,ioos:station:DISL:CATA:1,2009-09-05T00:30:00Z,30.3085,-88.1395,2.609,6.65,1111122 
DISL,ioos:station:DISL:CATA:1,2009-09-05T01:00:00Z,30.3085,-88.1395,2.613,6.85,1111122 
DISL,ioos:station:DISL:CATA:1,2009-09-05T01:30:00Z,30.3085,-88.1395,2.623,7.09,1111122 
DISL,ioos:station:DISL:CATA:1,2009-09-05T02:00:00Z,30.3085,-88.1395,2.635,7.1,1111122 
DISL,ioos:station:DISL:CATA:1,2009-09-05T02:30:00Z,30.3085,-88.1395,2.644,6.92,1111122 
DISL,ioos:station:DISL:CATA:1,2009-09-05T03:00:00Z,30.3085,-88.1395,2.648,6.84,1111122 
DISL,ioos:station:DISL:CATA:1,2009-09-05T03:30:00Z,30.3085,-88.1395,2.648,6.71,1111122 
DISL,ioos:station:DISL:CATA:1,2009-09-05T04:00:00Z,30.3085,-88.1395,2.648,6.67,1111122 
DISL,ioos:station:DISL:CATA:1,2009-09-05T04:30:00Z,30.3085,-88.1395,2.648,6.65,1111122 
DISL,ioos:station:DISL:CATA:1,2009-09-05T05:00:00Z,30.3085,-88.1395,2.646,6.62,1111122 
DISL,ioos:station:DISL:CATA:1,2009-09-05T05:30:00Z,30.3085,-88.1395,2.643,6.67,1111122 
DISL,ioos:station:DISL:CATA:1,2009-09-05T06:00:00Z,30.3085,-88.1395,2.639,6.62,1111122 
DISL,ioos:station:DISL:CATA:1,2009-09-05T06:30:00Z,30.3085,-88.1395,2.641,6.63,1111122 
DISL,ioos:station:DISL:CATA:1,2009-09-05T07:00:00Z,30.3085,-88.1395,2.649,6.56,1111122 
DISL,ioos:station:DISL:CATA:1,2009-09-05T07:30:00Z,30.3085,-88.1395,2.652,6.58,1111122 
DISL,ioos:station:DISL:CATA:1,2009-09-05T08:00:00Z,30.3085,-88.1395,2.65,6.53,1111122 
DISL,ioos:station:DISL:CATA:1,2009-09-05T08:30:00Z,30.3085,-88.1395,2.654,6.39,1111122 
DISL,ioos:station:DISL:CATA:1,2009-09-05T09:00:00Z,30.3085,-88.1395,2.653,6.05,1111122 
DISL,ioos:station:DISL:CATA:1,2009-09-05T09:30:00Z,30.3085,-88.1395,2.65,5.94,1111122 
DISL,ioos:station:DISL:CATA:1,2009-09-05T10:00:00Z,30.3085,-88.1395,2.655,6.02,1111122 
DISL,ioos:station:DISL:CATA:1,2009-09-05T10:30:00Z,30.3085,-88.1395,2.642,5.92,1111122 
DISL,ioos:station:DISL:CATA:1,2009-09-05T11:00:00Z,30.3085,-88.1395,2.639,5.86,1111122 
DISL,ioos:station:DISL:CATA:1,2009-09-05T11:30:00Z,30.3085,-88.1395,2.64,5.97,1111122 
DISL,ioos:station:DISL:CATA:1,2009-09-05T12:00:00Z,30.3085,-88.1395,2.647,6.25,1111122 
DISL,ioos:station:DISL:CATA:1,2009-09-05T12:30:00Z,30.3085,-88.1395,2.653,6.29,1111122 
DISL,ioos:station:DISL:CATA:1,2009-09-05T13:00:00Z,30.3085,-88.1395,2.655,6.22,1111122 
DISL,ioos:station:DISL:CATA:1,2009-09-05T13:30:00Z,30.3085,-88.1395,2.657,6.36,1111122 
DISL,ioos:station:DISL:CATA:1,2009-09-05T14:00:00Z,30.3085,-88.1395,2.666,6.49,1111122 
DISL,ioos:station:DISL:CATA:1,2009-09-05T14:30:00Z,30.3085,-88.1395,2.677,6.57,1111122 
DISL,ioos:station:DISL:CATA:1,2009-09-05T15:00:00Z,30.3085,-88.1395,2.694,6.6,1111122 
DISL,ioos:station:DISL:CATA:1,2009-09-05T15:30:00Z,30.3085,-88.1395,2.717,6.66,1111122 
DISL,ioos:station:DISL:CATA:1,2009-09-05T16:00:00Z,30.3085,-88.1395,2.744,6.75,1111122 
DISL,ioos:station:DISL:CATA:1,2009-09-05T16:30:00Z,30.3085,-88.1395,2.753,6.57,1111122 
DISL,ioos:station:DISL:CATA:1,2009-09-05T17:00:00Z,30.3085,-88.1395,2.753,6.58,1111122 
DISL,ioos:station:DISL:CATA:1,2009-09-05T17:30:00Z,30.3085,-88.1395,2.754,6.32,1111122 
DISL,ioos:station:DISL:CATA:1,2009-09-05T18:00:00Z,30.3085,-88.1395,2.759,6.23,1111122 
DISL,ioos:station:DISL:CATA:1,2009-09-05T18:30:00Z,30.3085,-88.1395,2.765,6.32,1111122 
DISL,ioos:station:DISL:CATA:1,2009-09-05T19:00:00Z,30.3085,-88.1395,2.762,6.38,1111122 
DISL,ioos:station:DISL:CATA:1,2009-09-05T19:30:00Z,30.3085,-88.1395,2.76,6.53,1111122 
DISL,ioos:station:DISL:CATA:1,2009-09-05T20:00:00Z,30.3085,-88.1395,2.746,6.71,1111122 
DISL,ioos:station:DISL:CATA:1,2009-09-05T20:30:00Z,30.3085,-88.1395,2.728,6.26,1111122 
DISL,ioos:station:DISL:CATA:1,2009-09-05T21:00:00Z,30.3085,-88.1395,2.705,6.44,1111122 
DISL,ioos:station:DISL:CATA:1,2009-09-05T21:30:00Z,30.3085,-88.1395,2.698,6.83,1111122 
DISL,ioos:station:DISL:CATA:1,2009-09-05T22:00:00Z,30.3085,-88.1395,2.688,7.21,1111122 
DISL,ioos:station:DISL:CATA:1,2009-09-05T22:30:00Z,30.3085,-88.1395,2.669,7.3,1111122 
DISL,ioos:station:DISL:CATA:1,2009-09-05T23:00:00Z,30.3085,-88.1395,2.652,7.2,1111122 
DISL,ioos:station:DISL:CATA:1,2009-09-05T23:30:00Z,30.3085,-88.1395,2.634,7.43,1111122 
DISL,ioos:station:DISL:CATA:1,2009-09-06T00:00:00Z,30.3085,-88.1395,2.629,7.37,1111122 
DISL,ioos:station:DISL:CATA:1,2009-09-06T00:30:00Z,30.3085,-88.1395,2.63,7.29,1111122 
DISL,ioos:station:DISL:CATA:1,2009-09-06T01:00:00Z,30.3085,-88.1395,2.639,6.99,1111122 
DISL,ioos:station:DISL:CATA:1,2009-09-06T01:30:00Z,30.3085,-88.1395,2.65,6.78,1111122 
DISL,ioos:station:DISL:CATA:1,2009-09-06T02:00:00Z,30.3085,-88.1395,2.661,6.71,1111122 
DISL,ioos:station:DISL:CATA:1,2009-09-06T02:30:00Z,30.3085,-88.1395,2.678,6.52,1111122 
DISL,ioos:station:DISL:CATA:1,2009-09-06T03:00:00Z,30.3085,-88.1395,2.694,6.29,1111122 
DISL,ioos:station:DISL:CATA:1,2009-09-06T03:30:00Z,30.3085,-88.1395,2.71,6.0,1111122 
DISL,ioos:station:DISL:CATA:1,2009-09-06T04:00:00Z,30.3085,-88.1395,2.718,5.3,1111122 
DISL,ioos:station:DISL:CATA:1,2009-09-06T04:30:00Z,30.3085,-88.1395,2.722,5.27,1111122 
DISL,ioos:station:DISL:CATA:1,2009-09-06T05:00:00Z,30.3085,-88.1395,2.719,5.22,1111122 
DISL,ioos:station:DISL:CATA:1,2009-09-06T05:30:00Z,30.3085,-88.1395,2.721,5.51,1111122 
DISL,ioos:station:DISL:CATA:1,2009-09-06T06:00:00Z,30.3085,-88.1395,2.723,5.68,1111122 
DISL,ioos:station:DISL:CATA:1,2009-09-06T06:30:00Z,30.3085,-88.1395,2.723,5.56,1111122 
DISL,ioos:station:DISL:CATA:1,2009-09-06T07:00:00Z,30.3085,-88.1395,2.722,5.37,1111122 
DISL,ioos:station:DISL:CATA:1,2009-09-06T07:30:00Z,30.3085,-88.1395,2.719,5.52,1111122 
DISL,ioos:station:DISL:CATA:1,2009-09-06T08:00:00Z,30.3085,-88.1395,2.712,5.32,1111122 
DISL,ioos:station:DISL:CATA:1,2009-09-06T08:30:00Z,30.3085,-88.1395,2.703,5.04,1111122 
DISL,ioos:station:DISL:CATA:1,2009-09-06T09:00:00Z,30.3085,-88.1395,2.688,5.0,1111122 
DISL,ioos:station:DISL:CATA:1,2009-09-06T09:30:00Z,30.3085,-88.1395,2.679,5.26,1111122 
DISL,ioos:station:DISL:CATA:1,2009-09-06T10:00:00Z,30.3085,-88.1395,2.656,5.32,1111122 
DISL,ioos:station:DISL:CATA:1,2009-09-06T10:30:00Z,30.3085,-88.1395,2.643,5.31,1111122 
DISL,ioos:station:DISL:CATA:1,2009-09-06T11:00:00Z,30.3085,-88.1395,2.623,5.66,1111122 
DISL,ioos:station:DISL:CATA:1,2009-09-06T11:30:00Z,30.3085,-88.1395,2.582,5.75,1111122 
DISL,ioos:station:DISL:CATA:1,2009-09-06T12:00:00Z,30.3085,-88.1395,2.566,5.92,1111122 
DISL,ioos:station:DISL:CATA:1,2009-09-06T12:30:00Z,30.3085,-88.1395,2.56,5.81,1111122 
DISL,ioos:station:DISL:CATA:1,2009-09-06T13:00:00Z,30.3085,-88.1395,2.576,5.9,1111122 
DISL,ioos:station:DISL:CATA:1,2009-09-06T13:30:00Z,30.3085,-88.1395,2.581,6.17,1111122 
DISL,ioos:station:DISL:CATA:1,2009-09-06T14:00:00Z,30.3085,-88.1395,2.594,5.95,1111122 
DISL,ioos:station:DISL:CATA:1,2009-09-06T14:30:00Z,30.3085,-88.1395,2.606,5.75,1111122 
DISL,ioos:station:DISL:CATA:1,2009-09-06T15:00:00Z,30.3085,-88.1395,2.621,5.69,1111122 
DISL,ioos:station:DISL:CATA:1,2009-09-06T15:30:00Z,30.3085,-88.1395,2.652,5.96,1111122 